Wind_Speed
3 4 3 5 1 2 3 5 3 10 5 2 12 2 4 6 2 7 22 21 22 21 20 19 19 18 19 19 18 18 16 15 13 10 9 8 9 8 8 7 8 7 7 7 7 7 8 9 8
3 3 4 2 3 6 4 3 8 7 9 15 12 7 5 5 4 18 22 26 22 22 20 19 18 17 18 18 17 17 15 12 10 7 5 6 6 6 7 6 8 9 7 7 6 6 7 8 8
4 4 2 3 2 5 4 5 12 11 7 5 5 9 4 3 11 24 23 28 23 21 19 19 18 17 17 16 14 13 11 9 9 6 3 4 4 6 6 7 8 8 8 8 8 6 6 7 8
2 3 2 6 8 5 4 7 11 8 10 8 9 8 6 4 17 17 29 26 23 21 19 18 17 16 15 14 13 11 9 7 6 4 3 4 5 5 6 8 7 6 7 6 7 6 6 6 7
2 1 4 4 5 3 4 8 7 3 6 6 5 6 13 7 10 25 27 25 23 21 19 17 16 15 13 12 10 8 6 6 5 4 5 4 5 4 6 5 6 5 5 6 6 6 5 5 6
1 0 3 4 4 3 4 9 5 8 10 14 16 14 6 5 15 26 24 23 21 20 18 17 15 14 11 10 8 7 6 5 5 6 5 4 4 4 4 4 4 4 5 4 3 4 4 4 5
2 2 2 2 2 1 4 9 7 8 11 9 14 7 6 12 19 23 23 22 20 19 18 17 15 13 11 9 9 8 7 7 6 7 6 4 2 3 3 2 3 3 2 2 2 1 3 2 4
2 1 1 2 2 1 8 6 10 11 7 14 8 6 8 19 25 23 21 19 19 19 18 17 15 13 11 10 9 8 8 6 6 5 5 4 3 2 2 2 2 2 2 1 2 3 3 4 4
1 0 1 1 2 1 13 6 6 5 17 4 2 9 18 26 25 24 22 19 19 18 18 16 15 13 12 10 10 9 8 6 5 5 4 3 3 1 1 1 2 2 0 1 4 4 5 6 7
1 1 3 1 4 3 13 9 11 6 14 5 11 15 25 26 26 25 25 23 21 20 19 17 16 14 13 11 11 9 8 7 7 6 5 4 3 2 1 1 2 2 2 3 3 4 6 7 7
2 2 2 3 6 8 12 9 7 14 7 9 19 26 27 26 24 22 21 21 21 19 19 17 16 14 13 12 10 9 8 8 7 6 6 4 2 1 2 3 3 5 6 6 5 7 7 8 8
3 5 5 3 8 9 9 7 6 9 1 12 22 29 30 28 26 22 20 20 21 21 19 18 16 15 14 13 11 10 9 8 6 5 4 2 2 2 3 4 5 7 9 10 10 10 11 12 11
3 5 1 6 12 11 11 6 1 8 4 16 23 29 28 25 21 19 18 18 20 21 20 19 18 16 15 14 13 12 10 7 6 3 3 3 2 3 5 8 9 7 6 8 9 7 9 11 12
6 2 6 6 11 10 9 4 5 6 14 21 26 27 24 23 23 20 20 19 20 21 21 20 20 18 14 14 14 12 9 7 4 2 1 2 3 5 7 10 7 6 5 5 5 8 8 8 10
2 5 7 5 4 3 7 3 7 13 18 22 25 25 23 23 21 23 21 21 19 19 21 21 20 19 15 15 14 12 9 7 5 2 4 5 5 7 9 10 6 6 5 6 6 5 7 7 9
1 3 2 1 5 4 5 6 3 19 22 22 23 25 24 26 27 25 23 21 20 19 22 21 21 21 19 18 15 11 9 7 5 2 5 7 7 8 10 11 7 6 7 8 6 7 7 9 9
3 6 2 2 5 2 7 6 5 20 21 21 22 25 26 27 28 27 27 25 24 21 20 23 22 21 20 18 15 12 9 7 5 4 3 3 4 6 9 8 6 6 6 7 7 9 9 9 7
4 4 1 3 1 5 6 10 6 19 22 23 24 24 25 26 30 28 28 28 27 25 22 22 23 21 19 18 16 14 12 11 9 7 5 7 5 5 7 5 5 6 7 9 8 8 8 4 7
6 2 3 5 6 4 5 9 7 18 21 22 25 25 27 29 24 27 27 27 28 30 27 25 25 23 22 20 19 17 14 13 11 9 8 8 6 7 5 5 5 6 6 6 6 7 5 5 5
5 3 5 6 3 4 4 9 8 19 28 30 29 29 29 28 24 28 29 30 31 30 30 28 26 26 24 23 20 18 14 12 12 11 10 8 6 7 5 4 4 5 6 5 7 7 6 5 4
4 5 1 6 9 2 5 7 3 7 17 23 27 31 30 30 30 27 30 32 32 32 29 32 27 26 25 24 23 21 18 14 10 10 9 5 7 5 5 3 3 4 3 6 6 6 5 4 4
10 4 4 4 4 4 5 5 8 2 9 13 25 33 33 32 29 27 26 31 33 34 29 27 30 26 25 26 26 24 19 14 9 7 7 6 6 5 3 2 2 2 3 5 5 6 6 4 3
6 3 1 1 4 4 1 4 9 4 13 8 18 26 32 33 33 31 30 29 30 31 29 25 29 28 25 25 26 23 20 16 11 9 9 6 4 3 3 3 2 2 2 3 3 5 6 6 6
9 4 6 3 3 4 0 5 12 5 8 7 2 10 22 29 32 30 29 29 30 31 29 28 27 28 25 25 26 25 20 17 14 11 11 7 6 4 4 4 3 2 1 2 3 6 7 7 7
5 6 5 6 5 6 2 5 11 12 8 12 14 10 13 22 26 29 29 33 33 31 29 28 28 28 26 23 26 26 23 19 16 12 11 8 8 8 5 4 3 2 1 1 3 6 8 8 7
9 8 4 6 5 6 2 5 8 2 13 10 9 9 8 17 20 26 30 31 32 32 30 28 29 29 27 24 22 25 24 21 18 14 10 8 9 9 7 6 3 2 1 1 2 5 7 7 7
6 5 3 4 1 3 2 6 12 4 7 6 3 2 5 10 14 18 24 29 29 33 33 30 29 29 27 25 23 22 21 21 19 15 13 12 11 10 10 10 5 4 3 2 3 6 8 6 5
3 10 4 1 2 4 3 5 5 6 9 7 3 3 2 4 9 14 18 21 25 30 33 32 32 30 25 24 21 22 19 20 20 18 16 16 16 14 14 13 10 6 4 3 3 5 5 4 4
5 4 5 3 1 3 3 3 1 9 11 12 8 4 2 4 7 9 9 13 19 23 31 32 31 32 32 29 24 24 24 21 21 19 20 19 16 16 16 15 13 10 6 4 4 5 3 3 3
2 3 7 4 4 0 2 6 4 6 9 8 12 10 3 4 6 9 9 6 11 19 26 31 29 31 32 34 30 23 21 18 19 23 19 21 19 16 15 14 14 12 13 8 3 2 1 3 5
Wind_Direction
102 84 79 19 68 64 50 49 66 117 136 101 150 171 120 53 59 95 142 146 147 138 135 137 143 138 137 138 141 145 140 137 125 121 107 87 90 100 109 112 105 98 106 116 116 125 132 165 169
89 48 42 356 56 64 57 36 91 69 96 124 102 99 62 82 79 135 143 149 148 142 139 139 145 148 148 141 146 144 141 142 134 129 109 98 92 108 119 118 105 94 107 128 116 115 122 140 157
43 42 21 66 43 56 66 67 116 112 91 125 107 68 57 64 126 139 152 151 151 146 143 142 151 155 149 147 150 144 145 146 140 130 131 106 103 109 104 117 103 102 108 120 119 113 120 138 145
11 28 51 52 50 58 68 123 137 121 84 69 107 75 72 129 133 149 152 154 154 151 146 148 152 152 152 151 151 143 152 149 142 157 142 116 111 106 101 106 108 109 105 122 128 122 129 134 143
322 321 43 43 36 38 100 135 153 89 91 79 101 93 109 140 151 152 153 155 157 156 154 154 156 154 152 152 150 151 159 161 168 160 141 130 127 122 110 116 119 119 121 113 126 136 140 141 147
305 70 22 23 22 31 87 144 123 105 105 112 104 109 125 155 159 156 153 155 161 160 157 161 162 161 162 157 158 162 165 158 162 153 142 132 149 126 117 114 120 111 120 136 139 149 173 179 175
19 22 32 13 12 64 132 147 124 115 126 110 132 107 133 153 162 161 157 159 164 165 164 165 164 164 162 165 165 167 166 167 161 156 150 147 140 118 133 122 125 117 123 136 163 176 194 196 192
59 324 48 9 349 16 142 134 132 121 100 131 115 166 171 169 162 162 163 165 169 169 170 171 169 170 165 172 177 175 169 166 167 164 156 145 130 136 141 148 147 147 145 175 228 235 242 233 222
145 345 272 263 200 123 157 133 144 115 137 114 41 149 159 160 161 163 168 172 176 177 176 179 178 174 176 176 176 176 164 164 161 157 149 131 121 106 145 157 107 96 70 288 253 237 245 254 253
230 209 221 231 179 187 169 151 144 127 152 78 95 133 157 160 166 170 175 179 182 183 181 183 183 179 177 179 175 175 171 168 161 166 159 138 117 141 143 80 23 23 3 345 337 265 255 253 255
198 271 189 240 209 155 166 147 142 139 190 182 160 151 160 164 173 179 182 184 179 179 182 180 182 184 180 179 172 173 168 165 160 142 138 147 113 80 7 351 326 310 306 295 294 293 284 278 276
298 281 225 172 154 138 162 152 161 170 153 185 167 162 162 168 175 184 188 189 188 185 183 178 179 183 181 176 175 169 166 164 156 144 138 109 61 13 348 348 327 306 292 291 283 280 277 275 273
249 311 319 140 126 122 135 171 176 194 122 151 159 165 171 176 180 186 189 193 193 192 185 182 178 178 180 179 170 167 163 146 136 131 93 64 2 348 1 341 315 313 303 311 265 281 282 273 273
310 300 77 101 136 141 148 162 177 163 148 148 163 170 177 184 187 190 196 195 196 193 190 186 181 177 180 178 171 167 168 166 153 137 25 352 338 327 317 330 319 309 307 333 290 272 287 284 275
17 99 80 88 117 105 145 175 229 158 158 156 166 176 184 192 196 199 199 199 197 194 194 192 189 186 183 174 176 180 178 193 201 234 283 290 306 322 327 327 311 313 317 309 309 283 296 303 296
118 54 74 188 134 147 183 268 207 168 166 168 174 183 190 198 204 208 209 206 205 200 196 193 193 193 184 181 182 188 198 216 223 245 280 277 284 298 316 322 306 317 319 318 306 312 312 312 313
40 122 71 334 206 161 216 270 177 177 177 177 184 188 195 201 211 215 217 215 214 206 200 197 197 196 193 193 196 203 214 222 220 226 308 342 303 313 318 320 313 324 323 327 315 308 321 315 322
123 131 254 308 41 199 236 261 177 190 190 189 190 197 199 203 212 215 218 222 222 219 213 208 207 202 201 205 206 211 219 219 218 238 275 309 292 321 323 318 323 333 332 325 314 314 330 343 340
120 129 282 265 294 267 251 263 210 197 210 205 200 202 205 210 205 214 222 226 227 228 225 218 217 212 209 211 216 221 225 227 232 241 270 279 288 317 313 311 318 330 327 320 329 323 328 326 338
151 183 260 290 136 283 305 272 263 193 209 214 209 205 210 212 210 215 222 227 232 233 230 229 226 223 219 220 224 228 234 239 246 254 268 273 288 308 314 300 305 326 317 333 337 328 316 314 332
185 241 175 300 331 113 288 279 231 202 218 223 226 224 216 213 209 209 218 227 232 238 236 227 227 231 225 226 230 235 240 245 251 249 245 268 300 289 318 274 280 322 332 344 359 359 354 310 324
228 207 229 270 314 302 350 308 300 224 228 217 217 221 221 218 217 214 213 224 232 237 234 231 228 230 232 227 230 234 239 245 258 234 234 256 285 305 293 256 271 317 354 1 14 28 26 19 322
238 123 55 300 261 282 163 262 284 312 302 286 223 223 221 220 217 214 213 218 228 233 233 230 231 228 233 231 228 229 235 239 243 233 230 243 263 300 247 230 266 302 353 6 38 31 29 9 1
141 100 62 73 191 230 11 254 289 281 279 300 7 246 221 218 217 220 220 221 229 235 239 234 228 228 229 233 228 227 230 232 236 239 229 227 239 237 234 229 264 265 325 17 20 11 7 1 4
179 159 202 215 220 268 85 223 265 278 273 291 315 298 222 211 213 216 216 220 225 232 234 234 225 223 226 226 230 228 231 231 234 242 235 229 228 211 221 213 230 231 260 16 2 1 355 353 355
174 218 218 241 256 296 143 237 259 265 307 305 298 277 218 204 208 214 220 225 224 225 228 230 224 219 222 225 229 232 234 235 235 242 245 233 227 216 196 201 209 198 223 294 348 344 349 354 1
152 189 49 118 104 260 264 265 279 298 291 282 326 243 201 201 210 218 221 227 229 225 224 225 226 219 222 225 229 233 234 235 238 241 246 246 227 225 212 189 190 197 211 286 332 342 346 352 13
240 140 156 153 228 249 219 275 261 331 345 341 311 323 9 246 238 238 239 232 231 229 228 226 225 225 220 221 226 228 229 233 235 236 245 240 229 214 211 205 188 190 214 262 317 337 343 353 7
145 169 69 117 300 262 257 257 260 295 322 335 359 7 321 287 265 261 249 238 232 228 225 227 225 225 223 224 223 227 222 226 229 232 238 243 232 227 208 209 202 198 202 235 303 327 324 16 64
64 159 191 230 191 220 320 278 71 350 323 348 19 31 8 307 265 252 252 243 231 217 229 233 229 225 225 225 224 223 226 236 232 234 239 240 236 229 215 217 206 206 207 203 249 296 291 115 121
Height
1500 1500 1500 1500 1503 1500 1511 1512 1506 1510 1512 1514 1516 1517 1520 1524 1524 1531 1535 1538 1541 1543 1545 1548 1550 1553 1554 1555 1556 1557 1558 1560 1560 1562 1563 1564 1565 1566 1566 1567 1568 1568 1569 1570 1570 1570 1571 1572 1574
1502 1502 1501 1501 1504 1511 1514 1508 1511 1512 1515 1515 1517 1520 1522 1527 1528 1530 1536 1540 1543 1545 1547 1550 1552 1554 1556 1557 1559 1560 1560 1561 1562 1564 1565 1567 1567 1567 1568 1569 1569 1569 1570 1571 1571 1571 1572 1573 1575
1502 1502 1504 1504 1509 1515 1515 1509 1511 1514 1516 1516 1519 1521 1524 1529 1530 1533 1536 1540 1544 1546 1549 1550 1553 1556 1557 1559 1561 1561 1562 1564 1564 1565 1567 1568 1569 1569 1569 1570 1570 1571 1572 1572 1573 1573 1574 1574 1576
1503 1504 1506 1506 1514 1511 1511 1512 1513 1514 1516 1517 1519 1523 1528 1531 1533 1534 1537 1541 1545 1548 1550 1552 1555 1557 1559 1560 1562 1563 1564 1565 1566 1568 1568 1569 1570 1570 1571 1570 1571 1572 1573 1574 1575 1575 1575 1576 1577
1505 1504 1504 1511 1513 1509 1510 1512 1514 1514 1517 1519 1520 1527 1530 1534 1534 1536 1539 1543 1546 1548 1551 1554 1556 1558 1559 1561 1563 1564 1565 1566 1567 1569 1569 1570 1571 1571 1572 1572 1573 1574 1574 1575 1576 1576 1576 1577 1578
1505 1505 1510 1517 1515 1510 1511 1513 1514 1516 1519 1522 1525 1527 1534 1534 1536 1538 1540 1544 1547 1549 1552 1555 1557 1559 1561 1562 1564 1565 1566 1567 1568 1570 1570 1571 1572 1572 1573 1574 1574 1574 1575 1576 1576 1577 1577 1578 1579
1506 1505 1512 1513 1514 1512 1511 1514 1514 1516 1519 1523 1525 1528 1534 1535 1537 1540 1542 1545 1548 1550 1553 1555 1558 1560 1562 1563 1565 1567 1567 1568 1569 1570 1571 1572 1573 1573 1575 1575 1575 1575 1576 1576 1576 1577 1578 1579 1580
1508 1507 1510 1511 1514 1515 1512 1513 1516 1517 1522 1525 1526 1528 1533 1533 1536 1540 1543 1546 1548 1551 1553 1556 1558 1561 1562 1564 1566 1567 1569 1570 1571 1572 1572 1573 1573 1574 1575 1576 1576 1576 1576 1577 1577 1577 1577 1579 1580
1507 1509 1513 1509 1511 1509 1511 1514 1519 1520 1522 1525 1526 1526 1529 1533 1536 1540 1543 1546 1548 1550 1553 1556 1559 1561 1563 1564 1566 1568 1570 1571 1572 1572 1573 1574 1575 1575 1576 1577 1577 1577 1577 1577 1578 1577 1578 1579 1580
1507 1510 1507 1504 1503 1507 1511 1513 1517 1521 1523 1526 1526 1527 1530 1534 1537 1540 1542 1545 1547 1550 1553 1556 1559 1561 1563 1565 1566 1568 1570 1571 1572 1573 1574 1574 1575 1576 1576 1577 1577 1577 1577 1577 1578 1577 1578 1579 1581
1507 1506 1503 1502 1502 1504 1510 1513 1516 1519 1523 1523 1524 1526 1530 1534 1538 1541 1543 1545 1547 1550 1553 1556 1559 1561 1563 1565 1567 1568 1570 1571 1572 1573 1574 1575 1575 1576 1577 1577 1577 1577 1577 1577 1576 1577 1577 1578 1578
1506 1501 1502 1500 1502 1506 1512 1514 1515 1516 1517 1520 1524 1526 1529 1533 1536 1540 1543 1545 1547 1549 1552 1555 1558 1560 1563 1565 1567 1569 1570 1571 1573 1574 1575 1575 1576 1576 1577 1576 1577 1577 1577 1577 1576 1576 1576 1576 1575
1505 1501 1501 1501 1503 1508 1512 1515 1516 1517 1516 1519 1525 1529 1533 1535 1538 1540 1543 1545 1547 1549 1551 1554 1557 1560 1563 1565 1567 1569 1570 1572 1574 1575 1576 1576 1577 1577 1577 1576 1576 1576 1575 1575 1574 1574 1574 1573 1573
1505 1503 1503 1504 1505 1508 1510 1514 1515 1518 1519 1520 1525 1530 1534 1537 1539 1541 1542 1544 1546 1549 1551 1554 1556 1559 1562 1565 1567 1569 1571 1573 1574 1575 1576 1576 1577 1577 1577 1576 1575 1575 1575 1574 1573 1573 1572 1571 1571
1505 1505 1504 1507 1508 1510 1512 1516 1514 1517 1520 1523 1525 1530 1533 1536 1540 1540 1542 1544 1546 1548 1551 1553 1557 1559 1561 1564 1567 1568 1570 1572 1574 1575 1576 1576 1576 1576 1576 1576 1575 1574 1573 1573 1572 1572 1571 1571 1569
1507 1506 1513 1507 1508 1510 1511 1516 1512 1516 1519 1522 1525 1528 1531 1533 1536 1539 1541 1544 1546 1548 1550 1553 1555 1558 1560 1563 1566 1568 1570 1571 1572 1574 1575 1575 1575 1576 1575 1575 1573 1573 1573 1572 1571 1571 1570 1569 1568
1510 1518 1515 1510 1507 1509 1511 1510 1511 1514 1518 1521 1523 1524 1525 1528 1532 1535 1538 1541 1544 1547 1549 1551 1554 1557 1560 1563 1565 1567 1569 1570 1571 1573 1574 1574 1574 1575 1574 1573 1573 1572 1572 1572 1571 1569 1568 1568 1567
1517 1516 1515 1516 1508 1509 1509 1507 1511 1514 1515 1516 1519 1522 1523 1524 1525 1530 1534 1538 1542 1545 1548 1551 1553 1556 1559 1562 1564 1565 1567 1569 1571 1572 1572 1572 1573 1573 1573 1573 1573 1572 1572 1571 1570 1569 1567 1566 1566
1508 1512 1516 1511 1506 1507 1506 1504 1505 1511 1515 1514 1514 1516 1517 1518 1520 1526 1530 1535 1538 1541 1545 1548 1551 1554 1557 1559 1562 1563 1565 1566 1568 1570 1571 1572 1572 1571 1571 1572 1572 1571 1571 1570 1570 1569 1567 1566 1566
1509 1513 1514 1505 1507 1508 1505 1501 1499 1503 1503 1507 1507 1510 1511 1514 1518 1521 1526 1530 1533 1536 1541 1545 1548 1551 1555 1558 1560 1562 1564 1565 1566 1568 1569 1571 1571 1570 1570 1570 1571 1571 1570 1569 1568 1567 1566 1566 1565
1509 1509 1513 1513 1504 1506 1505 1501 1499 1498 1501 1504 1505 1506 1507 1509 1512 1516 1520 1524 1529 1531 1535 1540 1544 1548 1552 1556 1559 1561 1562 1563 1564 1565 1568 1569 1569 1570 1569 1569 1569 1570 1569 1568 1567 1566 1566 1565 1565
1509 1504 1507 1511 1514 1519 1507 1520 1495 1494 1496 1496 1496 1496 1500 1504 1508 1513 1517 1520 1523 1526 1531 1536 1541 1544 1549 1552 1556 1559 1561 1562 1563 1564 1566 1567 1567 1568 1567 1568 1568 1568 1568 1567 1566 1565 1565 1565 1564
1502 1503 1508 1511 1515 1517 1514 1516 1494 1494 1485 1479 1486 1490 1493 1498 1503 1506 1510 1515 1519 1524 1528 1532 1536 1541 1545 1549 1552 1555 1558 1560 1561 1561 1562 1564 1564 1565 1566 1567 1567 1567 1567 1567 1566 1565 1564 1564 1564
1502 1504 1511 1518 1517 1525 1514 1514 1495 1492 1484 1478 1484 1486 1488 1492 1497 1502 1508 1512 1516 1520 1524 1529 1533 1538 1542 1545 1549 1552 1555 1557 1559 1559 1559 1561 1561 1562 1563 1564 1566 1567 1566 1567 1567 1566 1564 1564 1563
1500 1505 1522 1527 1524 1524 1519 1520 1496 1480 1482 1481 1481 1481 1483 1487 1492 1497 1500 1505 1510 1515 1520 1524 1529 1534 1538 1541 1544 1548 1552 1556 1557 1558 1557 1560 1560 1559 1560 1561 1563 1566 1566 1566 1566 1566 1565 1563 1563
1498 1498 1511 1538 1531 1518 1525 1519 1492 1481 1481 1480 1479 1478 1480 1484 1488 1491 1494 1500 1505 1510 1515 1519 1524 1530 1535 1538 1543 1547 1551 1555 1556 1557 1558 1559 1559 1560 1558 1559 1561 1563 1565 1565 1565 1566 1565 1562 1561
1504 1504 1502 1517 1536 1527 1511 1500 1482 1478 1477 1478 1478 1478 1480 1484 1486 1489 1491 1495 1500 1504 1509 1514 1520 1526 1531 1537 1541 1546 1549 1552 1555 1556 1557 1557 1558 1559 1560 1556 1559 1562 1564 1565 1564 1565 1564 1563 1561
1491 1499 1507 1513 1533 1534 1512 1514 1496 1481 1477 1477 1480 1482 1484 1485 1487 1488 1489 1492 1494 1498 1504 1510 1516 1521 1528 1533 1538 1542 1545 1548 1551 1553 1554 1555 1555 1553 1556 1557 1553 1559 1562 1563 1564 1564 1563 1562 1561
1496 1497 1508 1506 1515 1518 1521 1503 1486 1486 1482 1481 1483 1484 1484 1485 1485 1486 1486 1487 1489 1493 1499 1504 1512 1517 1523 1528 1532 1534 1536 1539 1544 1547 1548 1552 1553 1553 1552 1554 1552 1553 1558 1561 1562 1561 1561 1561 1560
1485 1487 1487 1501 1518 1520 1516 1500 1485 1486 1482 1483 1483 1483 1483 1482 1482 1482 1483 1484 1485 1489 1495 1500 1506 1511 1517 1521 1525 1527 1529 1536 1541 1544 1546 1547 1548 1550 1549 1550 1551 1550 1552 1555 1559 1560 1560 1560 1560